AVA125 SKBO-SEQM

Flight info

Callsign AVA125
Flight time 1h 15m
Altitude 23000
Route VAPOM4R OREGA Z009 PPN/N0421F240 W48 MER G675 IPI/N0413F230 G675 QIT
Aircraft A320/M-SDE3FGHIRWY/LB1

Departure

Time 2026-04-30 19:00
Airport El Dorado International Airport (SKBO)

Arrival

Time 2026-04-30 20:15
Airport Mariscal Sucre International Airport (SEQM)
Time Latitude Longitude Altitude Speed Heading
2026-04-30 17:54 4.69852 -74.14414 8362 ft 0 kts 219°
2026-04-30 18:50 4.69864 -74.14403 8361 ft 4 kts 227°
2026-04-30 18:50 4.69878 -74.14382 8362 ft 4 kts 255°
2026-04-30 18:51 4.69878 -74.14359 8362 ft 3 kts 304°
2026-04-30 18:51 4.69874 -74.14353 8362 ft 0 kts 306°
2026-04-30 18:53 4.69877 -74.14357 8362 ft 1 kts 306°
2026-04-30 18:53 4.69895 -74.14382 8361 ft 10 kts 307°
2026-04-30 18:53 4.69939 -74.14441 8361 ft 9 kts 307°
2026-04-30 18:54 4.69975 -74.14489 8361 ft 10 kts 307°
2026-04-30 18:54 4.70030 -74.14559 8361 ft 13 kts 302°
2026-04-30 18:54 4.69996 -74.14623 8361 ft 11 kts 215°
2026-04-30 18:54 4.69932 -74.14672 8361 ft 12 kts 218°
2026-04-30 18:55 4.69877 -74.14729 8361 ft 12 kts 253°
2026-04-30 18:55 4.69887 -74.14885 8361 ft 19 kts 304°
2026-04-30 18:55 4.69991 -74.15025 8361 ft 30 kts 307°
2026-04-30 18:56 4.70312 -74.15448 8361 ft 45 kts 307°
2026-04-30 18:56 4.70520 -74.15711 8361 ft 51 kts 308°
2026-04-30 18:56 4.70748 -74.15996 8361 ft 53 kts 307°
2026-04-30 18:57 4.71164 -74.16549 8360 ft 46 kts 307°
2026-04-30 18:57 4.71289 -74.16740 8360 ft 18 kts 261°
2026-04-30 18:57 4.71241 -74.16854 8360 ft 17 kts 237°
2026-04-30 18:58 4.71026 -74.16875 8359 ft 16 kts 149°
2026-04-30 18:58 4.70927 -74.16756 8360 ft 43 kts 127°
2026-04-30 18:58 4.70604 -74.16330 8362 ft 108 kts 127°
2026-04-30 18:59 4.69281 -74.14574 8633 ft 187 kts 127°
2026-04-30 19:00 4.65869 -74.13355 10213 ft 208 kts 211°
2026-04-30 19:00 4.64885 -74.14468 10388 ft 228 kts 243°
2026-04-30 19:00 4.63735 -74.17731 10819 ft 260 kts 242°
2026-04-30 19:01 4.61875 -74.20795 12142 ft 259 kts 242°
2026-04-30 19:01 4.61249 -74.22551 12426 ft 280 kts 252°
2026-04-30 19:02 4.60322 -74.26679 12697 ft 326 kts 254°
2026-04-30 19:02 4.58422 -74.31078 12887 ft 365 kts 241°
2026-04-30 19:03 4.56041 -74.35711 13710 ft 379 kts 239°
2026-04-30 19:03 4.53589 -74.40434 14647 ft 385 kts 240°
2026-04-30 19:04 4.51108 -74.45257 15548 ft 393 kts 241°
2026-04-30 19:04 4.49023 -74.49337 16376 ft 398 kts 241°
2026-04-30 19:05 4.46478 -74.54322 17253 ft 405 kts 241°
2026-04-30 19:05 4.43883 -74.59386 18167 ft 412 kts 241°
2026-04-30 19:06 4.41245 -74.64524 18942 ft 417 kts 241°
2026-04-30 19:06 4.39919 -74.67110 19353 ft 419 kts 241°
2026-04-30 19:06 4.37248 -74.72328 19771 ft 421 kts 241°
2026-04-30 19:07 4.34562 -74.77547 19782 ft 421 kts 241°
2026-04-30 19:07 4.33217 -74.80157 19784 ft 420 kts 241°
2026-04-30 19:08 4.30535 -74.85356 19784 ft 421 kts 241°
2026-04-30 19:08 4.27825 -74.90600 20550 ft 425 kts 241°
2026-04-30 19:08 4.26461 -74.93240 20944 ft 428 kts 241°
2026-04-30 19:09 4.23718 -74.98570 21707 ft 433 kts 241°
2026-04-30 19:09 4.22336 -75.01257 22151 ft 435 kts 241°
2026-04-30 19:09 4.20949 -75.03913 22469 ft 437 kts 238°
2026-04-30 19:10 4.17412 -75.08881 22851 ft 441 kts 231°
2026-04-30 19:10 4.13705 -75.13811 22854 ft 442 kts 231°
2026-04-30 19:11 4.11856 -75.16273 22833 ft 442 kts 231°
2026-04-30 19:11 4.08173 -75.21192 22871 ft 442 kts 231°
2026-04-30 19:11 4.06332 -75.23657 22871 ft 442 kts 231°
2026-04-30 19:12 4.04483 -75.26126 22874 ft 442 kts 231°
2026-04-30 19:12 4.02643 -75.28585 22870 ft 442 kts 231°
2026-04-30 19:12 4.00821 -75.31022 22870 ft 442 kts 232°
2026-04-30 19:13 3.97130 -75.35954 22896 ft 442 kts 232°
2026-04-30 19:13 3.93443 -75.40877 22892 ft 442 kts 232°
2026-04-30 19:13 3.91600 -75.43338 22889 ft 442 kts 231°
2026-04-30 19:14 3.89756 -75.45797 22880 ft 441 kts 231°
2026-04-30 19:14 3.87904 -75.48247 22879 ft 441 kts 229°
2026-04-30 19:14 3.85801 -75.50466 22950 ft 439 kts 219°
2026-04-30 19:14 3.83424 -75.52388 22919 ft 438 kts 216°
2026-04-30 19:15 3.81024 -75.54275 22922 ft 439 kts 216°
2026-04-30 19:15 3.76231 -75.58048 22924 ft 439 kts 216°
2026-04-30 19:15 3.73832 -75.59939 22925 ft 439 kts 216°
2026-04-30 19:16 3.71459 -75.61808 22923 ft 439 kts 216°
2026-04-30 19:16 3.69065 -75.63693 22913 ft 439 kts 216°
2026-04-30 19:16 3.64264 -75.67470 22974 ft 439 kts 217°
2026-04-30 19:17 3.61857 -75.69367 22971 ft 439 kts 217°
2026-04-30 19:17 3.57061 -75.73150 22971 ft 439 kts 217°
2026-04-30 19:17 3.54670 -75.75038 22970 ft 439 kts 217°
2026-04-30 19:18 3.50682 -75.78187 22973 ft 439 kts 217°
2026-04-30 19:18 3.47473 -75.80713 23012 ft 439 kts 217°
2026-04-30 19:18 3.45066 -75.82610 23013 ft 439 kts 216°
2026-04-30 19:19 3.42663 -75.84503 23014 ft 440 kts 217°
2026-04-30 19:19 3.40263 -75.86391 23009 ft 439 kts 216°
2026-04-30 19:19 3.35454 -75.90176 23010 ft 440 kts 217°
2026-04-30 19:20 3.33053 -75.92067 23013 ft 440 kts 216°
2026-04-30 19:20 3.30643 -75.93963 23023 ft 440 kts 217°
2026-04-30 19:20 3.25832 -75.97749 23025 ft 440 kts 216°
2026-04-30 19:21 3.23433 -75.99638 23038 ft 440 kts 216°
2026-04-30 19:21 3.18653 -76.03402 23039 ft 440 kts 217°
2026-04-30 19:22 3.13846 -76.07192 23013 ft 439 kts 217°
2026-04-30 19:22 3.06640 -76.12851 23032 ft 439 kts 217°
2026-04-30 19:23 2.99441 -76.18521 23037 ft 439 kts 217°
2026-04-30 19:24 2.94622 -76.22292 23019 ft 439 kts 216°
2026-04-30 19:24 2.92204 -76.24159 23019 ft 439 kts 216°
2026-04-30 19:24 2.87359 -76.27884 23017 ft 439 kts 216°
2026-04-30 19:25 2.80093 -76.33499 23049 ft 440 kts 216°
2026-04-30 19:26 2.75285 -76.37222 23016 ft 440 kts 217°
2026-04-30 19:26 2.70442 -76.40962 23018 ft 440 kts 216°
2026-04-30 19:26 2.68027 -76.42825 23026 ft 439 kts 217°
2026-04-30 19:27 2.63192 -76.46580 23053 ft 440 kts 217°
2026-04-30 19:27 2.58428 -76.50417 23067 ft 441 kts 218°
2026-04-30 19:28 2.56054 -76.52360 23076 ft 440 kts 218°
2026-04-30 19:28 2.51312 -76.56234 23084 ft 440 kts 217°
2026-04-30 19:29 2.46556 -76.60087 23084 ft 440 kts 217°
2026-04-30 19:29 2.44171 -76.62009 23084 ft 440 kts 217°
2026-04-30 19:30 2.37034 -76.67799 23083 ft 441 kts 218°
2026-04-30 19:30 2.32284 -76.71672 23071 ft 440 kts 217°
2026-04-30 19:31 2.27566 -76.75509 23057 ft 440 kts 217°
2026-04-30 19:31 2.25189 -76.77439 23050 ft 440 kts 217°
2026-04-30 19:31 2.20444 -76.81307 22988 ft 441 kts 217°
2026-04-30 19:32 2.18068 -76.83246 22973 ft 441 kts 218°
2026-04-30 19:32 2.15688 -76.85184 22973 ft 441 kts 216°
2026-04-30 19:32 2.13307 -76.87124 22982 ft 442 kts 218°
2026-04-30 19:32 2.10918 -76.89071 22987 ft 442 kts 218°
2026-04-30 19:33 2.08535 -76.91011 22980 ft 442 kts 218°
2026-04-30 19:33 2.06151 -76.92946 22994 ft 441 kts 218°
2026-04-30 19:33 2.03770 -76.94881 22951 ft 441 kts 218°
2026-04-30 19:33 2.01379 -76.96827 22952 ft 441 kts 218°
2026-04-30 19:34 1.99031 -76.98740 22954 ft 441 kts 218°
2026-04-30 19:34 1.96647 -77.00684 22955 ft 441 kts 218°
2026-04-30 19:34 1.91885 -77.04557 22979 ft 441 kts 218°
2026-04-30 19:35 1.89502 -77.06492 22977 ft 441 kts 218°
2026-04-30 19:35 1.87122 -77.08430 22944 ft 441 kts 218°
2026-04-30 19:35 1.84744 -77.10369 22939 ft 441 kts 218°
2026-04-30 19:35 1.82367 -77.12308 22941 ft 441 kts 218°
2026-04-30 19:36 1.79944 -77.14181 22936 ft 440 kts 212°
2026-04-30 19:36 1.77272 -77.15660 22957 ft 437 kts 202°
2026-04-30 19:36 1.71566 -77.17731 22951 ft 436 kts 198°
2026-04-30 19:37 1.68710 -77.18735 22952 ft 436 kts 198°
2026-04-30 19:37 1.65850 -77.19747 22950 ft 436 kts 198°
2026-04-30 19:37 1.62991 -77.20762 22980 ft 436 kts 198°
2026-04-30 19:37 1.60132 -77.21774 22979 ft 436 kts 198°
2026-04-30 19:38 1.57275 -77.22787 22977 ft 436 kts 198°
2026-04-30 19:38 1.54416 -77.23802 22934 ft 436 kts 198°
2026-04-30 19:38 1.51548 -77.24820 22933 ft 437 kts 198°
2026-04-30 19:38 1.48689 -77.25834 22972 ft 437 kts 198°
2026-04-30 19:39 1.45825 -77.26848 22969 ft 437 kts 198°
2026-04-30 19:39 1.42958 -77.27863 22969 ft 437 kts 198°
2026-04-30 19:39 1.40136 -77.29005 23067 ft 439 kts 205°
2026-04-30 19:39 1.37526 -77.30594 23071 ft 441 kts 214°
2026-04-30 19:40 1.35037 -77.32383 23071 ft 441 kts 214°
2026-04-30 19:40 1.32581 -77.34149 23071 ft 441 kts 214°
2026-04-30 19:40 1.30056 -77.35960 23062 ft 441 kts 214°
2026-04-30 19:40 1.27594 -77.37723 23051 ft 441 kts 214°
2026-04-30 19:41 1.25101 -77.39506 23044 ft 440 kts 214°
2026-04-30 19:41 1.22612 -77.41283 23029 ft 440 kts 214°
2026-04-30 19:41 1.20116 -77.43066 23020 ft 440 kts 214°
2026-04-30 19:41 1.17631 -77.44842 23030 ft 440 kts 214°
2026-04-30 19:42 1.15135 -77.46627 23023 ft 440 kts 214°
2026-04-30 19:42 1.12643 -77.48407 23063 ft 440 kts 214°
2026-04-30 19:42 1.10151 -77.50190 23096 ft 441 kts 213°
2026-04-30 19:42 1.07657 -77.51974 23136 ft 441 kts 214°
2026-04-30 19:43 1.05156 -77.53761 23171 ft 441 kts 214°
2026-04-30 19:43 1.02661 -77.55547 23224 ft 441 kts 214°
2026-04-30 19:43 1.00170 -77.57329 23265 ft 441 kts 214°
2026-04-30 19:44 0.95169 -77.60905 23338 ft 442 kts 214°
2026-04-30 19:44 0.92674 -77.62689 23362 ft 442 kts 214°
2026-04-30 19:44 0.90166 -77.64481 23361 ft 443 kts 213°
2026-04-30 19:44 0.87660 -77.66272 23378 ft 444 kts 212°
2026-04-30 19:45 0.85243 -77.68203 23383 ft 445 kts 221°
2026-04-30 19:45 0.82971 -77.70326 23045 ft 447 kts 221°
2026-04-30 19:45 0.80695 -77.72449 23055 ft 447 kts 221°
2026-04-30 19:45 0.78429 -77.74561 23053 ft 446 kts 220°
2026-04-30 19:46 0.76155 -77.76678 23054 ft 448 kts 221°
2026-04-30 19:46 0.73906 -77.78769 23077 ft 447 kts 221°
2026-04-30 19:46 0.71640 -77.80878 23077 ft 445 kts 220°
2026-04-30 19:46 0.69375 -77.82987 23065 ft 446 kts 222°
2026-04-30 19:47 0.67106 -77.85100 23080 ft 446 kts 222°
2026-04-30 19:47 0.65577 -77.86523 23080 ft 445 kts 222°
2026-04-30 19:47 0.62636 -77.89388 23072 ft 446 kts 227°
2026-04-30 19:47 0.60801 -77.91877 23081 ft 447 kts 238°
2026-04-30 19:48 0.59297 -77.94594 23088 ft 447 kts 240°
2026-04-30 19:48 0.57815 -77.97326 23078 ft 448 kts 241°
2026-04-30 19:48 0.56327 -78.00058 23089 ft 448 kts 240°
2026-04-30 19:48 0.54833 -78.02790 23078 ft 448 kts 240°
2026-04-30 19:49 0.53334 -78.05522 23079 ft 448 kts 241°
2026-04-30 19:49 0.50335 -78.10989 23075 ft 448 kts 240°
2026-04-30 19:49 0.48838 -78.13722 23075 ft 448 kts 240°
2026-04-30 19:50 0.47345 -78.16451 23079 ft 447 kts 241°
2026-04-30 19:50 0.45857 -78.19174 23072 ft 448 kts 240°
2026-04-30 19:50 0.44363 -78.21906 23102 ft 448 kts 241°
2026-04-30 19:50 0.43373 -78.23716 23109 ft 447 kts 240°
2026-04-30 19:51 0.41881 -78.26445 23101 ft 448 kts 240°
2026-04-30 19:51 0.40387 -78.29175 23098 ft 448 kts 241°
2026-04-30 19:51 0.38896 -78.31905 23104 ft 447 kts 240°
2026-04-30 19:51 0.37405 -78.34634 23101 ft 448 kts 240°
2026-04-30 19:52 0.35912 -78.37367 23111 ft 447 kts 240°
2026-04-30 19:52 0.34420 -78.40096 23120 ft 446 kts 240°
2026-04-30 19:52 0.32941 -78.42804 23124 ft 445 kts 240°
2026-04-30 19:52 0.31458 -78.45514 23122 ft 444 kts 240°
2026-04-30 19:53 0.29972 -78.48224 23121 ft 444 kts 240°
2026-04-30 19:53 0.28490 -78.50927 23135 ft 443 kts 240°
2026-04-30 19:53 0.27010 -78.53631 23139 ft 444 kts 240°
2026-04-30 19:53 0.25530 -78.56337 23140 ft 444 kts 240°
2026-04-30 19:54 0.24067 -78.59012 23142 ft 444 kts 240°
2026-04-30 19:54 0.22588 -78.61717 23141 ft 443 kts 240°
2026-04-30 19:54 0.21107 -78.64420 23140 ft 443 kts 240°
2026-04-30 19:54 0.19627 -78.67120 23138 ft 443 kts 240°
2026-04-30 19:55 0.18149 -78.69821 23128 ft 443 kts 241°
2026-04-30 19:55 0.16675 -78.72519 23133 ft 442 kts 241°
2026-04-30 19:55 0.15204 -78.75213 23129 ft 442 kts 241°
2026-04-30 19:55 0.13733 -78.77907 23137 ft 442 kts 241°
2026-04-30 19:56 0.12258 -78.80606 23139 ft 442 kts 240°
2026-04-30 19:56 0.10786 -78.83298 23139 ft 441 kts 240°
2026-04-30 19:56 0.09315 -78.85989 23097 ft 441 kts 240°
2026-04-30 19:56 0.07844 -78.88677 23101 ft 441 kts 240°
2026-04-30 19:57 0.06369 -78.91370 23102 ft 442 kts 240°
2026-04-30 19:57 0.04888 -78.94070 23102 ft 442 kts 241°
2026-04-30 19:57 0.03413 -78.96759 23095 ft 441 kts 240°
2026-04-30 19:57 0.01947 -78.99436 23035 ft 440 kts 240°
2026-04-30 19:58 0.00479 -79.02117 23033 ft 440 kts 241°
2026-04-30 19:58 -0.00988 -79.04803 23055 ft 440 kts 240°
2026-04-30 19:58 -0.02440 -79.07461 23060 ft 441 kts 240°
2026-04-30 19:58 -0.04273 -79.09897 23059 ft 437 kts 221°
2026-04-30 19:59 -0.06801 -79.11493 22971 ft 425 kts 200°
2026-04-30 19:59 -0.09648 -79.12029 22696 ft 415 kts 176°
2026-04-30 19:59 -0.14713 -79.09810 22195 ft 404 kts 131°
2026-04-30 20:00 -0.16152 -79.07441 21945 ft 400 kts 108°
2026-04-30 20:00 -0.16511 -79.04710 21706 ft 396 kts 84°
2026-04-30 20:00 -0.15741 -79.02099 21456 ft 395 kts 61°
2026-04-30 20:00 -0.14151 -78.99861 21220 ft 395 kts 53°
2026-04-30 20:01 -0.10811 -78.95526 20790 ft 393 kts 54°
2026-04-30 20:01 -0.09145 -78.93367 20561 ft 391 kts 53°
2026-04-30 20:01 -0.07488 -78.91223 20324 ft 390 kts 53°
2026-04-30 20:02 -0.04186 -78.86949 19853 ft 388 kts 53°
2026-04-30 20:02 -0.02541 -78.84820 19626 ft 385 kts 53°
2026-04-30 20:03 0.00727 -78.80594 19204 ft 384 kts 54°
2026-04-30 20:03 0.02357 -78.78486 18981 ft 383 kts 53°
2026-04-30 20:03 0.03983 -78.76383 18758 ft 382 kts 53°
2026-04-30 20:03 0.05606 -78.74285 18534 ft 381 kts 54°
2026-04-30 20:04 0.07223 -78.72194 18299 ft 379 kts 54°
2026-04-30 20:04 0.08745 -78.70054 18045 ft 376 kts 63°
2026-04-30 20:04 0.09712 -78.67649 17912 ft 372 kts 72°
2026-04-30 20:05 0.11361 -78.62781 17924 ft 372 kts 72°
2026-04-30 20:05 0.12186 -78.60340 17926 ft 371 kts 72°
2026-04-30 20:05 0.13312 -78.55338 17925 ft 370 kts 91°
2026-04-30 20:06 0.13012 -78.52791 17926 ft 369 kts 104°
2026-04-30 20:06 0.12099 -78.50398 17927 ft 370 kts 118°
2026-04-30 20:06 0.10666 -78.48260 17922 ft 370 kts 126°
2026-04-30 20:06 0.09149 -78.46212 17919 ft 360 kts 126°
2026-04-30 20:07 0.07718 -78.44272 17923 ft 332 kts 125°
2026-04-30 20:07 0.06403 -78.42481 17923 ft 307 kts 125°
2026-04-30 20:07 0.04027 -78.39306 17948 ft 272 kts 130°
2026-04-30 20:08 0.02675 -78.38028 17694 ft 265 kts 141°
2026-04-30 20:08 0.01195 -78.37082 17608 ft 239 kts 150°
2026-04-30 20:08 -0.00227 -78.36466 17432 ft 209 kts 158°
2026-04-30 20:08 -0.01558 -78.36098 17260 ft 189 kts 165°
2026-04-30 20:09 -0.02824 -78.35893 16955 ft 181 kts 173°
2026-04-30 20:09 -0.04071 -78.35858 16620 ft 177 kts 176°
2026-04-30 20:09 -0.06386 -78.35086 15723 ft 175 kts 139°
2026-04-30 20:10 -0.07246 -78.33033 15046 ft 165 kts 79°
2026-04-30 20:10 -0.06634 -78.32074 14674 ft 172 kts 36°
2026-04-30 20:10 -0.05436 -78.31844 14151 ft 190 kts 346°
2026-04-30 20:11 -0.04186 -78.34071 12932 ft 205 kts 256°
2026-04-30 20:11 -0.04875 -78.35239 12519 ft 196 kts 223°
2026-04-30 20:11 -0.06087 -78.35754 12119 ft 188 kts 184°
2026-04-30 20:12 -0.07935 -78.34538 11691 ft 160 kts 103°
2026-04-30 20:12 -0.07823 -78.33479 11435 ft 154 kts 60°
2026-04-30 20:12 -0.07011 -78.32769 10962 ft 168 kts 22°
2026-04-30 20:13 -0.05801 -78.32742 10371 ft 183 kts 341°
2026-04-30 20:13 -0.04822 -78.33541 9893 ft 188 kts 297°
2026-04-30 20:13 -0.04767 -78.34807 9424 ft 186 kts 245°
2026-04-30 20:13 -0.05709 -78.35557 9070 ft 172 kts 187°
2026-04-30 20:14 -0.06897 -78.35723 8568 ft 175 kts 184°
2026-04-30 20:14 -0.08096 -78.35671 8270 ft 172 kts 171°
2026-04-30 20:14 -0.09274 -78.35566 8029 ft 160 kts 178°
2026-04-30 20:14 -0.10275 -78.35521 7981 ft 90 kts 70°
2026-04-30 20:15 -0.10781 -78.35477 7780 ft 59 kts 91°
2026-04-30 20:15 -0.11125 -78.35508 7810 ft 41 kts 93°
2026-04-30 20:15 -0.11376 -78.35535 7815 ft 32 kts 94°
2026-04-30 20:15 -0.11449 -78.35545 7819 ft 30 kts 94°